STARLINK-34759, 65096

Orbit data source: Space-Track

STARLINK-34759, 65096 is a payload satellite owned by SpaceX/Seattle (US) in LEO that was launched on Mon, 04 Aug 2025 UTC via an FALCON 9 launch vehicle from the Air Force Eastern Test Range (AFETR). Payload-class satellites include a variety of spacecraft equipped with specific instruments for various scientific and technological missions. These include communications satellites like Starlink; space stations such as the ISS; scientific satellites like the Hubble; Earth observation satellites from companies like Planet Labs, Umbra, and HawkEye 360; GPS; miniature CubeSats for education and research; and military/defense satellites.

Loading next visibility...
Identifier
65096, 2025-167U
Orbit
LEO
Country
Flag of USUS
Related business
Manufacturer
SpaceX/Seattle
Mission
Operational spacecraft
Bus & Motor
STARLINK V2MO, Unknown motor
Mass
575 kg wet, ~530 kg dry
Launch date (UTC)
2025-08-04 (1 month ago)
Launch vehicle
FALCON 9
Launch site
Air Force Eastern Test Range (AFETR)
Object type
Payload
Rocket body
Debris
Shape & HBR
Unknown
Radar Cross Section
Large (>1 m²)

Expand to show TLE details & history
Last TLE update: 12 hours ago

TLE from 12 hours ago
0 STARLINK-34759
1 65096U 25167U   25243.11332958  .00383088  00000-0  24853-2 0  9999
2 65096  53.1584 195.3118 0001000 132.8209 227.2895 15.74352266  4255
Epoch: 2025-08-31T02:43Z
TLE epoch observation values (Epoch: 2025-08-31T02:43:11.675Z)
Latitude
-0.00004°
Longitude
174.97519°
Altitude
347.848 km
Speed
7.701 km/s
True Right ascension
13h 01m 14s
True Declination
0° 00' 00"
Sunlit
Object was in daylight at epoch
Visualization orbit readout
Latitude
Unknown
Longitude
Unknown
Altitude
Unknown
Speed
Unknown
Apparent Right ascension
Unknown
Apparent Declination
Unknown
Sunlit
N/A
Visualization observer readout
Local Sidereal Time
06:15:17
Azimuth
Unknown
Elevation
Unknown
Doppler factor
Unknown
Orbital elements
Apogee altitude
347.409 km
Perigee altitude
346.064 km
Semi-major axis
6,724.873 km
Eccentricity
0.0001
Inclination
53.1584°
RAAN
195.3118°
Arg. of periapsis
132.8209°
True anomaly
227.28108°
Mean anomaly
227.2895°
Eccentric anomaly
227.28529°
Mean motion
3.93565 °/min
Orbital period
91.47 mins
BSTAR
0.0024853
Loading maneuver chart data...
Computing Atmospheric mass density...
Loading historical data...
Loading historical data...
Loading historical data...
Loading historical data...
Loading historical data...
Loading historical data...
Loading historical data...

Documentation

Showing up to 5 results
|